Location: ???????
(54.6339°N, 39.4245°E)
Time: 13:12:39
(UTC+00:00)

USA 234 - Pass Details

Date: 19 May 2025
Orbit: 1097 x 1111 km, 123.0° (Epoch: 19 June)

Event Time Altitude Azimuth Distance (km) Brightness Sun altitude
Rises 20:42:13 0° 73° (ENE) 3,920 6.3 -15.0°
Reaches altitude 10° 20:44:41 10° 73° (ENE) 2,963 5.6 -15.0°
Maximum altitude 20:51:14 80° 348° (NNW) 1,126 3.4 -15.2°
Drops below altitude 10° 20:57:48 10° 263° (W) 2,969 5.5 -15.3°
Sets 21:00:17 0° 262° (W) 3,928 6.1 -15.3°
